{"data":{"norad_id":69856,"epoch":"2026-09-19T20:11:09.456288Z","epoch_age_seconds":78589,"freshness":"FRESH","line1":"1 69856U 26155J   26262.84108167 -.01777029  00000+0 -31727+1 0  9990","line2":"2 69856  89.0080  53.7958 0037319  11.3010 348.8968 13.45879698 10633","mean_motion":13.45879698,"eccentricity":0.0037319,"inclination_deg":89.008,"raan_deg":53.7958,"arg_perigee_deg":11.301,"mean_anomaly_deg":348.8968,"bstar":-3.1727,"rev_number":1063,"period_min":106.99321805209,"perigee_km":1059.5957824966,"apogee_km":1115.3174802424,"semimajor_km":7465.5936313695,"source":"CELESTRAK","updated_at":"2026-09-20T09:00:25.158447Z"}}